Starlink 32042

operational
NORAD ID: 60108 Int'l Des: 2024-117 Owner: SPXS Country: US Constellation: starlink
LEOCIRCULAR

Über Starlink 32042

Beschreibung wird geladen...

Live-Position

3D-Globus wird geladen...

Nächste Überflüge

Höhenverlauf

Altitude vs Time

uPlot chart will show altitude changes over time

Zweizeiliger Elementsatz

1 60108U 24117T 25350.18406977 .00001555 00000-0 64659-4 0 9997
2 60108 53.1611 64.8376 0001247 98.4438 261.6704 15.30185568 84109
Epoch: 16. Dez. 2025 • Age: 22 hours

Aktueller Status

Höhe 480.8 km
Geschwindigkeit 7.63 km/s
Subsatellitenpunkt 52.78°N, 34°E
Startdatum 23. Juni 2024
Alter 1.4 years
Typ internet

Technische Details

Klassifizierung Payload
Masse 730.00 kg
Trockenmasse 700.00 kg
Gesamtmasse 730.00 kg
Länge 0.30 m
Durchmesser 4.10 m
Spannweite 29.00 m
Form Box + pan
Hersteller SPXS
Bus-Typ Starlink V2M
Phasenstatus In Orbit
Besitzer/Staat SPXS/US

Große Konstellationen

Loading constellations...